Time,TemperatureF,DewpointF,PressureIn,WindDirection,WindDirectionDegrees,WindSpeedMPH,WindSpeedGustMPH,Humidity,HourlyPrecipIn,Conditions,Clouds,dailyrainin,SolarRadiationWatts/m^2,SoftwareType,DateUTC
2013-05-21 00:02:00,79.0,71.6,29.78,SSE,162,9.0,11.0,78,0.00,,,0.00,0,Wunderground v.1.15,2013-05-21 05:02:00,
2013-05-21 00:08:00,78.8,71.7,29.78,South,170,9.0,11.0,79,0.00,,,0.00,0,Wunderground v.1.15,2013-05-21 05:08:00,
2013-05-21 00:14:00,78.6,71.5,29.78,South,169,10.0,14.0,79,0.00,,,0.00,0,Wunderground v.1.15,2013-05-21 05:14:00,
2013-05-21 00:20:00,78.4,71.3,29.78,SSE,168,9.0,9.0,79,0.00,,,0.00,0,Wunderground v.1.15,2013-05-21 05:20:00,
2013-05-21 00:26:00,78.3,71.2,29.77,South,174,10.0,13.0,79,0.00,,,0.00,0,Wunderground v.1.15,2013-05-21 05:26:00,
2013-05-21 00:32:00,78.2,71.5,29.76,SE,146,11.0,12.0,80,0.00,,,0.00,0,Wunderground v.1.15,2013-05-21 05:32:00,
2013-05-21 00:40:00,78.0,71.3,29.75,SSE,161,14.0,16.0,80,0.00,,,0.00,0,Wunderground v.1.15,2013-05-21 05:40:00,
2013-05-21 00:46:00,77.9,71.2,29.75,South,171,15.0,16.0,80,0.00,,,0.00,0,Wunderground v.1.15,2013-05-21 05:46:00,
2013-05-21 00:52:00,77.8,71.1,29.75,SSE,159,13.0,15.0,80,0.00,,,0.00,0,Wunderground v.1.15,2013-05-21 05:52:00,
2013-05-21 01:00:00,77.6,71.3,29.75,South,173,12.0,13.0,81,0.00,,,0.00,0,Wunderground v.1.15,2013-05-21 06:00:00,
2013-05-21 01:06:00,77.4,71.1,29.75,SSE,163,11.0,13.0,81,0.00,,,0.00,0,Wunderground v.1.15,2013-05-21 06:06:00,
2013-05-21 01:12:00,77.3,71.0,29.74,SSE,153,12.0,18.0,81,0.00,,,0.00,0,Wunderground v.1.15,2013-05-21 06:12:00,
2013-05-21 01:18:00,77.2,70.9,29.74,SSE,167,14.0,18.0,81,0.00,,,0.00,0,Wunderground v.1.15,2013-05-21 06:18:00,
2013-05-21 01:26:00,77.1,70.8,29.73,South,170,14.0,19.0,81,0.00,,,0.00,0,Wunderground v.1.15,2013-05-21 06:26:00,
2013-05-21 01:32:00,77.0,70.7,29.73,SSE,165,14.0,17.0,81,0.00,,,0.00,0,Wunderground v.1.15,2013-05-21 06:32:00,
2013-05-21 01:38:00,77.0,70.7,29.73,SSE,161,15.0,17.0,81,0.00,,,0.00,0,Wunderground v.1.15,2013-05-21 06:38:00,
2013-05-21 01:46:00,76.9,70.6,29.72,SSE,160,15.0,17.0,81,0.00,,,0.00,0,Wunderground v.1.15,2013-05-21 06:46:00,
2013-05-21 01:52:00,76.9,70.6,29.73,South,179,15.0,19.0,81,0.00,,,0.00,0,Wunderground v.1.15,2013-05-21 06:52:00,
2013-05-21 02:00:00,76.7,70.4,29.72,SSE,161,13.0,13.0,81,0.00,,,0.00,0,Wunderground v.1.15,2013-05-21 07:00:00,
2013-05-21 02:06:00,76.6,70.7,29.72,SSE,155,12.0,14.0,82,0.00,,,0.00,0,Wunderground v.1.15,2013-05-21 07:06:00,
2013-05-21 02:12:00,76.5,70.6,29.72,SSE,153,11.0,11.0,82,0.00,,,0.00,0,Wunderground v.1.15,2013-05-21 07:12:00,
2013-05-21 02:18:00,76.4,70.9,29.72,SSE,165,11.0,13.0,83,0.00,,,0.00,0,Wunderground v.1.15,2013-05-21 07:18:00,
2013-05-21 02:24:00,76.3,70.8,29.72,SSE,159,11.0,11.0,83,0.00,,,0.00,0,Wunderground v.1.15,2013-05-21 07:24:00,
2013-05-21 02:30:00,76.2,70.7,29.72,SSE,165,10.0,10.0,83,0.00,,,0.00,0,Wunderground v.1.15,2013-05-21 07:30:00,
2013-05-21 02:36:00,76.1,70.6,29.72,SSE,163,9.0,13.0,83,0.00,,,0.00,0,Wunderground v.1.15,2013-05-21 07:36:00,
2013-05-21 02:42:00,76.0,70.5,29.72,SSE,151,10.0,13.0,83,0.00,,,0.00,0,Wunderground v.1.15,2013-05-21 07:42:00,
2013-05-21 02:48:00,75.9,70.4,29.72,SSE,157,11.0,13.0,83,0.00,,,0.00,0,Wunderground v.1.15,2013-05-21 07:48:00,
2013-05-21 02:56:00,75.8,70.6,29.71,SE,134,11.0,17.0,84,0.00,,,0.00,0,Wunderground v.1.15,2013-05-21 07:56:00,
2013-05-21 03:02:00,75.8,70.6,29.71,SE,129,11.0,18.0,84,0.00,,,0.00,0,Wunderground v.1.15,2013-05-21 08:02:00,
2013-05-21 03:10:00,75.7,70.2,29.70,SSE,160,12.0,12.0,83,0.00,,,0.00,0,Wunderground v.1.15,2013-05-21 08:10:00,
2013-05-21 03:16:00,75.7,70.2,29.70,SSE,156,12.0,14.0,83,0.00,,,0.00,0,Wunderground v.1.15,2013-05-21 08:16:00,
2013-05-21 03:22:00,75.7,70.2,29.69,SSE,167,13.0,17.0,83,0.00,,,0.00,0,Wunderground v.1.15,2013-05-21 08:22:00,
2013-05-21 03:28:00,75.6,70.1,29.69,SSE,168,12.0,17.0,83,0.00,,,0.00,0,Wunderground v.1.15,2013-05-21 08:28:00,
2013-05-21 03:34:00,75.5,70.3,29.69,SSE,153,11.0,12.0,84,0.00,,,0.00,0,Wunderground v.1.15,2013-05-21 08:34:00,
2013-05-21 03:40:00,75.4,70.2,29.69,SSE,163,11.0,12.0,84,0.00,,,0.00,0,Wunderground v.1.15,2013-05-21 08:40:00,
2013-05-21 03:46:00,75.3,70.1,29.69,SSE,163,11.0,15.0,84,0.00,,,0.00,0,Wunderground v.1.15,2013-05-21 08:46:00,
2013-05-21 03:52:00,75.3,70.1,29.70,SE,135,11.0,14.0,84,0.00,,,0.00,0,Wunderground v.1.15,2013-05-21 08:52:00,
2013-05-21 03:58:00,75.3,70.1,29.70,SSE,166,10.0,14.0,84,0.00,,,0.00,0,Wunderground v.1.15,2013-05-21 08:58:00,
2013-05-21 04:06:00,75.2,70.4,29.70,SSE,155,10.0,13.0,85,0.00,,,0.00,0,Wunderground v.1.15,2013-05-21 09:06:00,
2013-05-21 04:11:00,75.2,70.4,29.70,SSE,156,10.0,12.0,85,0.00,,,0.00,0,Wunderground v.1.15,2013-05-21 09:11:00,
2013-05-21 04:20:00,75.1,70.3,29.71,South,171,10.0,10.0,85,0.00,,,0.00,0,Wunderground v.1.15,2013-05-21 09:20:00,
2013-05-21 04:26:00,75.1,70.3,29.70,SSE,159,10.0,11.0,85,0.00,,,0.00,0,Wunderground v.1.15,2013-05-21 09:26:00,
2013-05-21 04:32:00,75.1,70.3,29.71,SSE,161,10.0,10.0,85,0.00,,,0.00,0,Wunderground v.1.15,2013-05-21 09:32:00,
2013-05-21 04:38:00,75.1,70.3,29.71,SSE,165,11.0,11.0,85,0.00,,,0.00,0,Wunderground v.1.15,2013-05-21 09:38:00,
2013-05-21 04:44:00,75.0,70.2,29.71,SSE,164,11.0,15.0,85,0.00,,,0.00,0,Wunderground v.1.15,2013-05-21 09:44:00,
2013-05-21 04:50:00,75.0,70.5,29.70,SSE,150,11.0,11.0,86,0.00,,,0.00,0,Wunderground v.1.15,2013-05-21 09:50:00,
2013-05-21 04:55:00,74.9,70.4,29.70,SSE,159,11.0,14.0,86,0.00,,,0.00,0,Wunderground v.1.15,2013-05-21 09:55:00,
2013-05-21 05:02:00,74.9,70.8,29.71,SSE,157,12.0,15.0,87,0.00,,,0.00,0,Wunderground v.1.15,2013-05-21 10:02:00,
2013-05-21 05:08:00,74.8,70.7,29.71,South,177,12.0,15.0,87,0.00,,,0.00,0,Wunderground v.1.15,2013-05-21 10:08:00,
2013-05-21 05:16:00,74.7,70.6,29.71,SSE,167,11.0,13.0,87,0.00,,,0.00,0,Wunderground v.1.15,2013-05-21 10:16:00,
2013-05-21 05:22:00,74.7,70.6,29.71,SSE,163,10.0,11.0,87,0.00,,,0.00,0,Wunderground v.1.15,2013-05-21 10:22:00,
2013-05-21 05:28:00,74.6,70.5,29.71,SSE,165,10.0,11.0,87,0.00,,,0.00,0,Wunderground v.1.15,2013-05-21 10:28:00,
2013-05-21 05:34:00,74.5,70.7,29.71,SSE,153,10.0,10.0,88,0.00,,,0.00,0,Wunderground v.1.15,2013-05-21 10:34:00,
2013-05-21 05:40:00,74.5,70.7,29.71,SSE,162,11.0,11.0,88,0.00,,,0.00,0,Wunderground v.1.15,2013-05-21 10:40:00,
2013-05-21 05:46:00,74.5,70.7,29.71,SSE,161,10.0,11.0,88,0.00,,,0.00,0,Wunderground v.1.15,2013-05-21 10:46:00,
2013-05-21 05:52:00,74.4,70.6,29.71,South,173,10.0,10.0,88,0.00,,,0.00,0,Wunderground v.1.15,2013-05-21 10:52:00,
2013-05-21 05:58:00,74.3,70.5,29.71,SSE,148,9.0,11.0,88,0.00,,,0.00,0,Wunderground v.1.15,2013-05-21 10:58:00,
2013-05-21 06:04:00,74.3,70.8,29.71,SSE,148,9.0,11.0,89,0.00,,,0.00,0,Wunderground v.1.15,2013-05-21 11:04:00,
2013-05-21 06:10:00,74.3,70.8,29.70,SSE,151,10.0,10.0,89,0.00,,,0.00,0,Wunderground v.1.15,2013-05-21 11:10:00,
2013-05-21 06:16:00,74.3,70.8,29.70,SSE,153,11.0,11.0,89,0.00,,,0.00,0,Wunderground v.1.15,2013-05-21 11:16:00,
2013-05-21 06:22:00,74.3,70.8,29.71,SE,140,11.0,12.0,89,0.00,,,0.00,0,Wunderground v.1.15,2013-05-21 11:22:00,
2013-05-21 06:28:00,74.3,70.8,29.71,SSE,148,10.0,13.0,89,0.00,,,0.00,0,Wunderground v.1.15,2013-05-21 11:28:00,
2013-05-21 06:33:00,74.3,70.8,29.72,SSE,153,10.0,10.0,89,0.00,,,0.00,9,Wunderground v.1.15,2013-05-21 11:33:00,
2013-05-21 06:39:00,74.2,70.7,29.72,SSE,163,9.0,9.0,89,0.00,,,0.00,14,Wunderground v.1.15,2013-05-21 11:39:00,
2013-05-21 06:46:00,74.3,70.8,29.72,South,173,9.0,9.0,89,0.00,,,0.00,19,Wunderground v.1.15,2013-05-21 11:46:00,
2013-05-21 06:52:00,74.2,71.1,29.73,SSE,160,8.0,12.0,90,0.00,,,0.00,25,Wunderground v.1.15,2013-05-21 11:52:00,
2013-05-21 07:00:00,74.3,71.2,29.73,SSE,160,8.0,8.0,90,0.00,,,0.00,32,Wunderground v.1.15,2013-05-21 12:00:00,
2013-05-21 07:06:00,74.3,71.2,29.73,SSE,161,8.0,8.0,90,0.00,,,0.00,46,Wunderground v.1.15,2013-05-21 12:06:00,
2013-05-21 07:12:00,74.4,70.9,29.73,SSE,153,8.0,10.0,89,0.00,,,0.00,56,Wunderground v.1.15,2013-05-21 12:12:00,
2013-05-21 07:20:00,74.6,71.1,29.73,SSE,153,9.0,9.0,89,0.00,,,0.00,77,Wunderground v.1.15,2013-05-21 12:20:00,
2013-05-21 07:26:00,74.7,71.2,29.74,SSE,167,8.0,10.0,89,0.00,,,0.00,60,Wunderground v.1.15,2013-05-21 12:26:00,
2013-05-21 07:32:00,74.8,71.3,29.74,SSE,163,8.0,10.0,89,0.00,,,0.00,114,Wunderground v.1.15,2013-05-21 12:32:00,
2013-05-21 07:38:00,75.0,71.2,29.74,South,174,8.0,11.0,88,0.00,,,0.00,49,Wunderground v.1.15,2013-05-21 12:38:00,
2013-05-21 07:46:00,75.3,71.5,29.73,SSE,167,8.0,10.0,88,0.00,,,0.00,53,Wunderground v.1.15,2013-05-21 12:46:00,
2013-05-21 07:52:00,75.5,71.4,29.73,SSE,165,8.0,8.0,87,0.00,,,0.00,86,Wunderground v.1.15,2013-05-21 12:52:00,
2013-05-21 07:58:00,76.0,71.2,29.73,SSE,160,10.0,12.0,85,0.00,,,0.00,137,Wunderground v.1.15,2013-05-21 12:58:00,
2013-05-21 08:04:00,76.3,71.5,29.74,South,170,10.0,10.0,85,0.00,,,0.00,88,Wunderground v.1.15,2013-05-21 13:04:00,
2013-05-21 08:10:00,76.4,71.6,29.74,South,173,8.0,8.0,85,0.00,,,0.00,53,Wunderground v.1.15,2013-05-21 13:10:00,
2013-05-21 08:16:00,76.4,71.9,29.74,South,184,7.0,10.0,86,0.00,,,0.00,54,Wunderground v.1.15,2013-05-21 13:16:00,
2013-05-21 08:22:00,76.3,71.8,29.74,SSW,198,8.0,8.0,86,0.00,,,0.00,44,Wunderground v.1.15,2013-05-21 13:22:00,
2013-05-21 08:28:00,76.2,71.7,29.74,South,184,6.0,8.0,86,0.00,,,0.00,23,Wunderground v.1.15,2013-05-21 13:28:00,
2013-05-21 08:34:00,76.1,71.6,29.74,South,172,8.0,11.0,86,0.00,,,0.00,63,Wunderground v.1.15,2013-05-21 13:34:00,
2013-05-21 08:40:00,76.1,71.9,29.74,South,178,7.0,8.0,87,0.00,,,0.00,62,Wunderground v.1.15,2013-05-21 13:40:00,
2013-05-21 08:46:00,76.2,72.0,29.75,SSW,197,7.0,10.0,87,0.00,,,0.00,95,Wunderground v.1.15,2013-05-21 13:46:00,
2013-05-21 08:52:00,76.5,72.3,29.75,South,173,8.0,10.0,87,0.00,,,0.00,169,Wunderground v.1.15,2013-05-21 13:52:00,
2013-05-21 08:58:00,76.8,72.3,29.75,South,183,10.0,10.0,86,0.00,,,0.00,151,Wunderground v.1.15,2013-05-21 13:58:00,
2013-05-21 09:06:00,77.2,72.3,29.75,South,178,10.0,13.0,85,0.00,,,0.00,167,Wunderground v.1.15,2013-05-21 14:06:00,
2013-05-21 09:12:00,77.3,72.4,29.75,SSE,167,10.0,11.0,85,0.00,,,0.00,123,Wunderground v.1.15,2013-05-21 14:12:00,
2013-05-21 09:18:00,77.3,72.4,29.75,SSE,164,11.0,11.0,85,0.00,,,0.00,146,Wunderground v.1.15,2013-05-21 14:18:00,
2013-05-21 09:24:00,77.3,72.4,29.75,SSE,165,10.0,10.0,85,0.00,,,0.00,116,Wunderground v.1.15,2013-05-21 14:24:00,
2013-05-21 09:30:00,77.3,72.1,29.74,South,175,10.0,10.0,84,0.00,,,0.00,149,Wunderground v.1.15,2013-05-21 14:30:00,
2013-05-21 09:36:00,77.5,72.3,29.74,SSW,192,9.0,17.0,84,0.00,,,0.00,195,Wunderground v.1.15,2013-05-21 14:36:00,
2013-05-21 09:42:00,77.6,72.4,29.74,SSE,165,10.0,18.0,84,0.00,,,0.00,211,Wunderground v.1.15,2013-05-21 14:42:00,
2013-05-21 09:48:00,78.0,72.4,29.74,SSE,167,10.0,18.0,83,0.00,,,0.00,193,Wunderground v.1.15,2013-05-21 14:48:00,
2013-05-21 09:56:00,78.3,72.7,29.74,South,186,10.0,11.0,83,0.00,,,0.00,262,Wunderground v.1.15,2013-05-21 14:56:00,
2013-05-21 10:02:00,78.5,72.9,29.74,SSE,157,11.0,14.0,83,0.00,,,0.00,271,Wunderground v.1.15,2013-05-21 15:02:00,
2013-05-21 10:10:00,78.9,72.9,29.73,South,182,12.0,12.0,82,0.00,,,0.00,232,Wunderground v.1.15,2013-05-21 15:10:00,
2013-05-21 10:15:00,79.2,73.2,29.73,SSE,164,11.0,12.0,82,0.00,,,0.00,329,Wunderground v.1.15,2013-05-21 15:15:00,
2013-05-21 10:22:00,80.0,73.3,29.73,South,184,12.0,14.0,80,0.00,,,0.00,455,Wunderground v.1.15,2013-05-21 15:22:00,
2013-05-21 10:30:00,80.3,73.2,29.73,SSE,168,13.0,21.0,79,0.00,,,0.00,671,Wunderground v.1.15,2013-05-21 15:30:00,
2013-05-21 10:35:00,80.7,73.2,29.72,South,177,13.0,21.0,78,0.00,,,0.00,721,Wunderground v.1.15,2013-05-21 15:35:00,
2013-05-21 10:42:00,81.1,72.8,29.72,South,170,15.0,18.0,76,0.00,,,0.00,387,Wunderground v.1.15,2013-05-21 15:42:00,
2013-05-21 10:48:00,81.8,73.5,29.72,South,169,15.0,18.0,76,0.00,,,0.00,306,Wunderground v.1.15,2013-05-21 15:48:00,
2013-05-21 10:53:00,82.0,73.3,29.73,South,178,11.0,15.0,75,0.00,,,0.00,302,Wunderground v.1.15,2013-05-21 15:53:00,
2013-05-21 11:00:00,81.9,72.8,29.73,South,178,13.0,18.0,74,0.00,,,0.00,272,Wunderground v.1.15,2013-05-21 16:00:00,
2013-05-21 11:06:00,81.7,72.6,29.73,SSW,197,14.0,18.0,74,0.00,,,0.00,346,Wunderground v.1.15,2013-05-21 16:06:00,
2013-05-21 11:12:00,81.6,72.1,29.73,SSE,165,14.0,15.0,73,0.00,,,0.00,308,Wunderground v.1.15,2013-05-21 16:12:00,
2013-05-21 11:18:00,81.4,72.3,29.73,South,181,15.0,15.0,74,0.00,,,0.00,295,Wunderground v.1.15,2013-05-21 16:18:00,
2013-05-21 11:26:00,81.8,72.3,29.73,SSE,166,13.0,14.0,73,0.00,,,0.00,353,Wunderground v.1.15,2013-05-21 16:26:00,
2013-05-21 11:32:00,81.8,72.7,29.74,SSE,167,13.0,17.0,74,0.00,,,0.00,418,Wunderground v.1.15,2013-05-21 16:32:00,
2013-05-21 11:40:00,81.9,72.8,29.73,South,173,16.0,16.0,74,0.00,,,0.00,388,Wunderground v.1.15,2013-05-21 16:40:00,
2013-05-21 11:46:00,82.0,72.5,29.73,South,179,16.0,26.0,73,0.00,,,0.00,415,Wunderground v.1.15,2013-05-21 16:46:00,
2013-05-21 11:52:00,82.1,73.0,29.73,South,172,15.0,16.0,74,0.00,,,0.00,480,Wunderground v.1.15,2013-05-21 16:52:00,
2013-05-21 12:00:00,83.0,73.0,29.73,SSE,164,13.0,13.0,72,0.00,,,0.00,329,Wunderground v.1.15,2013-05-21 17:00:00,
2013-05-21 12:06:00,83.2,72.8,29.73,SSE,164,13.0,21.0,71,0.00,,,0.00,404,Wunderground v.1.15,2013-05-21 17:06:00,
2013-05-21 12:12:00,83.0,72.6,29.73,South,169,13.0,17.0,71,0.00,,,0.00,253,Wunderground v.1.15,2013-05-21 17:12:00,
2013-05-21 12:20:00,83.0,72.6,29.73,SSW,204,12.0,24.0,71,0.00,,,0.00,258,Wunderground v.1.15,2013-05-21 17:20:00,
2013-05-21 12:26:00,83.0,72.2,29.73,South,172,12.0,24.0,70,0.00,,,0.00,295,Wunderground v.1.15,2013-05-21 17:26:00,
2013-05-21 12:32:00,83.5,71.8,29.74,SSE,160,13.0,16.0,68,0.00,,,0.00,643,Wunderground v.1.15,2013-05-21 17:32:00,
2013-05-21 12:38:00,84.2,72.5,29.74,South,186,14.0,18.0,68,0.00,,,0.00,1013,Wunderground v.1.15,2013-05-21 17:38:00,
2013-05-21 12:43:00,84.5,71.9,29.73,South,174,13.0,22.0,66,0.00,,,0.00,935,Wunderground v.1.15,2013-05-21 17:43:00,
2013-05-21 12:50:00,84.2,71.6,29.74,South,175,14.0,16.0,66,0.00,,,0.00,394,Wunderground v.1.15,2013-05-21 17:50:00,
2013-05-21 12:56:00,83.3,71.2,29.74,South,188,14.0,21.0,67,0.00,,,0.00,343,Wunderground v.1.15,2013-05-21 17:56:00,
2013-05-21 13:02:00,83.5,71.8,29.73,South,188,15.0,16.0,68,0.00,,,0.00,371,Wunderground v.1.15,2013-05-21 18:02:00,
2013-05-21 13:10:00,83.4,71.7,29.73,South,171,14.0,14.0,68,0.00,,,0.00,425,Wunderground v.1.15,2013-05-21 18:10:00,
2013-05-21 13:16:00,83.8,72.1,29.73,SSE,161,12.0,14.0,68,0.00,,,0.00,371,Wunderground v.1.15,2013-05-21 18:16:00,
2013-05-21 13:22:00,83.7,72.0,29.73,South,180,12.0,19.0,68,0.00,,,0.00,445,Wunderground v.1.15,2013-05-21 18:22:00,
2013-05-21 13:28:00,83.6,72.3,29.73,SSE,165,13.0,19.0,69,0.00,,,0.00,385,Wunderground v.1.15,2013-05-21 18:28:00,
2013-05-21 13:33:00,83.6,72.3,29.73,South,169,14.0,16.0,69,0.00,,,0.00,475,Wunderground v.1.15,2013-05-21 18:33:00,
2013-05-21 13:40:00,84.1,72.8,29.72,SE,124,13.0,13.0,69,0.00,,,0.00,475,Wunderground v.1.15,2013-05-21 18:40:00,
2013-05-21 13:46:00,84.6,72.4,29.72,SSE,165,13.0,13.0,67,0.00,,,0.00,925,Wunderground v.1.15,2013-05-21 18:46:00,
2013-05-21 13:52:00,84.9,72.7,29.72,SSE,159,13.0,13.0,67,0.00,,,0.00,904,Wunderground v.1.15,2013-05-21 18:52:00,
2013-05-21 13:58:00,85.4,72.3,29.72,South,181,14.0,16.0,65,0.00,,,0.00,909,Wunderground v.1.15,2013-05-21 18:58:00,
2013-05-21 14:06:00,85.6,72.9,29.71,South,186,13.0,17.0,66,0.00,,,0.00,429,Wunderground v.1.15,2013-05-21 19:06:00,
2013-05-21 14:12:00,85.6,72.0,29.71,SSE,161,13.0,21.0,64,0.00,,,0.00,970,Wunderground v.1.15,2013-05-21 19:12:00,
2013-05-21 14:18:00,85.5,72.4,29.70,South,169,15.0,21.0,65,0.00,,,0.00,482,Wunderground v.1.15,2013-05-21 19:18:00,
2013-05-21 14:24:00,85.3,72.2,29.69,South,169,15.0,15.0,65,0.00,,,0.00,907,Wunderground v.1.15,2013-05-21 19:24:00,
2013-05-21 14:30:00,85.3,71.7,29.70,South,171,16.0,16.0,64,0.00,,,0.00,487,Wunderground v.1.15,2013-05-21 19:30:00,
2013-05-21 14:36:00,85.6,72.0,29.69,SSE,165,14.0,16.0,64,0.00,,,0.00,1005,Wunderground v.1.15,2013-05-21 19:36:00,
2013-05-21 14:42:00,86.6,73.0,29.68,South,190,12.0,12.0,64,0.00,,,0.00,940,Wunderground v.1.15,2013-05-21 19:42:00,
2013-05-21 14:48:00,86.6,72.5,29.68,South,180,13.0,24.0,63,0.00,,,0.00,413,Wunderground v.1.15,2013-05-21 19:48:00,
2013-05-21 14:53:00,86.0,72.4,29.68,South,175,15.0,22.0,64,0.00,,,0.00,330,Wunderground v.1.15,2013-05-21 19:53:00,
2013-05-21 15:00:00,85.8,72.7,29.68,SSE,157,14.0,23.0,65,0.00,,,0.00,396,Wunderground v.1.15,2013-05-21 20:00:00,
2013-05-21 15:06:00,85.5,71.9,29.67,SSE,165,15.0,24.0,64,0.00,,,0.00,323,Wunderground v.1.15,2013-05-21 20:06:00,
2013-05-21 15:16:00,86.2,73.0,29.66,South,173,15.0,19.0,65,0.00,,,0.00,863,Wunderground v.1.15,2013-05-21 20:16:00,
2013-05-21 15:21:00,86.2,72.6,29.66,SSE,165,15.0,21.0,64,0.00,,,0.00,807,Wunderground v.1.15,2013-05-21 20:21:00,
2013-05-21 15:28:00,86.6,73.0,29.65,SSE,164,16.0,22.0,64,0.00,,,0.00,373,Wunderground v.1.15,2013-05-21 20:28:00,
2013-05-21 15:34:00,86.0,72.4,29.65,SSE,161,17.0,18.0,64,0.00,,,0.00,517,Wunderground v.1.15,2013-05-21 20:34:00,
2013-05-21 15:42:00,86.0,72.4,29.63,SSW,198,16.0,17.0,64,0.00,,,0.00,436,Wunderground v.1.15,2013-05-21 20:42:00,
2013-05-21 15:48:00,86.9,73.3,29.61,South,177,15.0,17.0,64,0.00,,,0.00,821,Wunderground v.1.15,2013-05-21 20:48:00,
2013-05-21 15:53:00,87.1,72.5,29.61,South,184,15.0,16.0,62,0.00,,,0.00,434,Wunderground v.1.15,2013-05-21 20:53:00,
2013-05-21 16:00:00,87.2,73.1,29.60,SSW,193,15.0,15.0,63,0.00,,,0.00,803,Wunderground v.1.15,2013-05-21 21:00:00,
2013-05-21 16:06:00,86.8,72.7,29.59,SSE,154,16.0,21.0,63,0.00,,,0.00,378,Wunderground v.1.15,2013-05-21 21:06:00,
2013-05-21 16:12:00,86.1,72.5,29.61,South,180,15.0,16.0,64,0.00,,,0.00,155,Wunderground v.1.15,2013-05-21 21:12:00,
2013-05-21 16:18:00,85.3,72.2,29.61,South,189,14.0,20.0,65,0.00,,,0.00,113,Wunderground v.1.15,2013-05-21 21:18:00,
2013-05-21 16:23:00,85.1,72.0,29.61,South,184,15.0,18.0,65,0.00,,,0.00,105,Wunderground v.1.15,2013-05-21 21:23:00,
2013-05-21 16:30:00,85.1,72.5,29.61,South,183,12.0,12.0,66,0.00,,,0.00,67,Wunderground v.1.15,2013-05-21 21:30:00,
2013-05-21 16:36:00,84.9,72.3,29.61,SSE,167,10.0,12.0,66,0.00,,,0.00,63,Wunderground v.1.15,2013-05-21 21:36:00,
2013-05-21 16:42:00,84.8,72.2,29.61,South,169,11.0,11.0,66,0.00,,,0.00,58,Wunderground v.1.15,2013-05-21 21:42:00,
2013-05-21 16:48:00,84.7,72.1,29.62,South,178,13.0,13.0,66,0.00,,,0.00,65,Wunderground v.1.15,2013-05-21 21:48:00,
2013-05-21 16:54:00,84.6,72.0,29.63,SSW,195,12.0,18.0,66,0.00,,,0.00,21,Wunderground v.1.15,2013-05-21 21:54:00,
2013-05-21 17:00:00,84.4,72.2,29.64,South,187,10.0,10.0,67,0.00,,,0.00,9,Wunderground v.1.15,2013-05-21 22:00:00,
2013-05-21 17:06:00,84.2,72.5,29.64,South,186,9.0,14.0,68,0.00,,,0.00,0,Wunderground v.1.15,2013-05-21 22:06:00,
2013-05-21 17:12:00,84.0,72.7,29.64,SW,224,8.0,8.0,69,0.00,,,0.00,0,Wunderground v.1.15,2013-05-21 22:12:00,
2013-05-21 17:18:00,79.1,66.8,29.67,WNW,302,9.0,14.0,66,0.00,,,0.00,0,Wunderground v.1.15,2013-05-21 22:18:00,
2013-05-21 17:24:00,75.1,65.9,29.69,WNW,294,11.0,13.0,73,0.00,,,0.00,0,Wunderground v.1.15,2013-05-21 22:24:00,
2013-05-21 17:30:00,72.2,65.7,29.68,NW,323,11.0,11.0,80,0.00,,,0.00,0,Wunderground v.1.15,2013-05-21 22:30:00,
2013-05-21 17:36:00,70.6,65.9,29.66,NW,314,9.0,11.0,85,0.00,,,0.00,0,Wunderground v.1.15,2013-05-21 22:36:00,
2013-05-21 17:42:00,69.5,65.5,29.68,NW,317,10.0,10.0,87,1.15,,,0.04,0,Wunderground v.1.15,2013-05-21 22:42:00,
2013-05-21 17:48:00,68.1,64.7,29.74,West,281,12.0,12.0,89,3.72,,,0.24,0,Wunderground v.1.15,2013-05-21 22:48:00,
2013-05-21 17:56:00,65.9,62.9,29.69,WNW,288,11.0,13.0,90,0.35,,,0.42,0,Wunderground v.1.15,2013-05-21 22:56:00,
2013-05-21 18:02:00,65.1,62.1,29.69,NW,315,11.0,13.0,90,0.97,,,0.55,0,Wunderground v.1.15,2013-05-21 23:02:00,
2013-05-21 18:08:00,64.5,61.8,29.69,NW,317,10.0,13.0,91,0.44,,,0.61,5,Wunderground v.1.15,2013-05-21 23:08:00,
2013-05-21 18:16:00,64.1,61.7,29.70,NNW,348,9.0,10.0,92,0.10,,,0.62,9,Wunderground v.1.15,2013-05-21 23:16:00,
2013-05-21 18:22:00,64.0,61.6,29.70,NNW,333,8.0,8.0,92,0.07,,,0.62,7,Wunderground v.1.15,2013-05-21 23:22:00,
2013-05-21 18:28:00,63.9,61.8,29.72,NNW,333,6.0,8.0,93,0.04,,,0.62,0,Wunderground v.1.15,2013-05-21 23:28:00,
2013-05-21 18:34:00,63.9,61.8,29.71,NNW,337,6.0,6.0,93,0.00,,,0.62,0,Wunderground v.1.15,2013-05-21 23:34:00,
2013-05-21 18:40:00,63.8,61.7,29.71,North,360,7.0,7.0,93,0.00,,,0.62,0,Wunderground v.1.15,2013-05-21 23:40:00,
2013-05-21 18:45:00,63.7,61.6,29.70,NNW,339,9.0,11.0,93,0.00,,,0.62,0,Wunderground v.1.15,2013-05-21 23:45:00,
2013-05-21 18:51:00,63.6,61.5,29.71,North,350,9.0,12.0,93,0.00,,,0.62,0,Wunderground v.1.15,2013-05-21 23:51:00,
2013-05-21 19:00:00,63.3,61.2,29.71,North,351,10.0,10.0,93,0.00,,,0.62,0,Wunderground v.1.15,2013-05-22 00:00:00,
2013-05-21 19:05:00,63.2,61.1,29.72,North,350,9.0,10.0,93,0.00,,,0.62,0,Wunderground v.1.15,2013-05-22 00:05:00,
2013-05-21 19:12:00,63.2,61.1,29.71,North,355,9.0,12.0,93,0.00,,,0.62,5,Wunderground v.1.15,2013-05-22 00:12:00,
2013-05-21 19:18:00,63.2,61.1,29.72,North,355,9.0,13.0,93,0.00,,,0.62,7,Wunderground v.1.15,2013-05-22 00:18:00,
2013-05-21 19:26:00,63.2,61.1,29.73,North,350,6.0,8.0,93,0.00,,,0.62,9,Wunderground v.1.15,2013-05-22 00:26:00,
2013-05-21 19:32:00,63.2,61.1,29.72,North,355,5.0,8.0,93,0.00,,,0.62,23,Wunderground v.1.15,2013-05-22 00:32:00,
2013-05-21 19:38:00,63.1,61.0,29.72,NNW,336,7.0,8.0,93,0.00,,,0.62,44,Wunderground v.1.15,2013-05-22 00:38:00,
2013-05-21 19:44:00,63.1,61.0,29.72,NNW,337,7.0,8.0,93,0.00,,,0.62,84,Wunderground v.1.15,2013-05-22 00:44:00,
2013-05-21 19:50:00,63.2,61.1,29.73,NNW,347,6.0,6.0,93,0.00,,,0.62,76,Wunderground v.1.15,2013-05-22 00:50:00,
2013-05-21 19:56:00,63.2,60.8,29.73,NNW,348,6.0,10.0,92,0.00,,,0.62,67,Wunderground v.1.15,2013-05-22 00:56:00,
2013-05-21 20:02:00,63.2,61.1,29.74,NNW,346,5.0,8.0,93,0.00,,,0.62,53,Wunderground v.1.15,2013-05-22 01:02:00,
2013-05-21 20:08:00,63.2,60.8,29.74,NNW,346,5.0,8.0,92,0.00,,,0.62,32,Wunderground v.1.15,2013-05-22 01:08:00,
2013-05-21 20:16:00,63.2,60.8,29.75,North,355,6.0,8.0,92,0.00,,,0.62,47,Wunderground v.1.15,2013-05-22 01:16:00,
2013-05-21 20:22:00,63.2,60.8,29.75,North,355,5.0,6.0,92,0.00,,,0.62,25,Wunderground v.1.15,2013-05-22 01:22:00,
2013-05-21 20:28:00,63.2,60.8,29.76,North,351,4.0,6.0,92,0.00,,,0.62,9,Wunderground v.1.15,2013-05-22 01:28:00,
2013-05-21 20:36:00,63.2,60.8,29.75,North,350,5.0,5.0,92,0.00,,,0.62,0,Wunderground v.1.15,2013-05-22 01:36:00,
2013-05-21 20:42:00,63.2,60.8,29.75,North,350,5.0,5.0,92,0.00,,,0.62,0,Wunderground v.1.15,2013-05-22 01:42:00,
2013-05-21 20:50:00,63.2,61.1,29.76,North,350,3.0,6.0,93,0.00,,,0.62,0,Wunderground v.1.15,2013-05-22 01:50:00,
2013-05-21 20:56:00,63.2,61.1,29.76,North,350,1.0,6.0,93,0.00,,,0.62,0,Wunderground v.1.15,2013-05-22 01:56:00,
2013-05-21 21:02:00,63.3,61.2,29.75,North,350,0.0,1.0,93,0.00,,,0.62,0,Wunderground v.1.15,2013-05-22 02:02:00,
2013-05-21 21:08:00,63.3,61.2,29.74,North,350,2.0,5.0,93,0.00,,,0.62,0,Wunderground v.1.15,2013-05-22 02:08:00,
2013-05-21 21:16:00,63.4,61.3,29.76,North,350,3.0,4.0,93,0.00,,,0.62,0,Wunderground v.1.15,2013-05-22 02:16:00,
2013-05-21 21:22:00,63.4,61.3,29.78,North,350,0.0,4.0,93,0.00,,,0.62,0,Wunderground v.1.15,2013-05-22 02:22:00,
2013-05-21 21:28:00,63.4,61.3,29.78,North,350,1.0,4.0,93,0.00,,,0.62,0,Wunderground v.1.15,2013-05-22 02:28:00,
2013-05-21 21:34:00,63.4,61.3,29.78,North,350,1.0,2.0,93,0.00,,,0.62,0,Wunderground v.1.15,2013-05-22 02:34:00,
2013-05-21 21:40:00,63.5,61.4,29.78,North,350,2.0,3.0,93,0.00,,,0.62,0,Wunderground v.1.15,2013-05-22 02:40:00,
2013-05-21 21:46:00,63.5,61.4,29.79,North,350,3.0,4.0,93,0.00,,,0.62,0,Wunderground v.1.15,2013-05-22 02:46:00,
2013-05-21 21:52:00,63.5,61.4,29.80,North,350,2.0,3.0,93,0.00,,,0.62,0,Wunderground v.1.15,2013-05-22 02:52:00,
2013-05-21 22:00:00,63.6,61.5,29.80,North,350,3.0,3.0,93,0.00,,,0.62,0,Wunderground v.1.15,2013-05-22 03:00:00,
2013-05-21 22:06:00,63.5,61.4,29.81,North,350,2.0,3.0,93,0.00,,,0.62,0,Wunderground v.1.15,2013-05-22 03:06:00,
2013-05-21 22:12:00,63.6,61.5,29.81,North,350,0.0,1.0,93,0.00,,,0.62,0,Wunderground v.1.15,2013-05-22 03:12:00,
2013-05-21 22:20:00,63.6,61.5,29.81,North,350,2.0,5.0,93,0.00,,,0.62,0,Wunderground v.1.15,2013-05-22 03:20:00,
2013-05-21 22:26:00,63.6,61.5,29.82,North,350,3.0,5.0,93,0.00,,,0.62,0,Wunderground v.1.15,2013-05-22 03:26:00,
2013-05-21 22:32:00,63.6,61.5,29.81,North,350,4.0,4.0,93,0.00,,,0.62,0,Wunderground v.1.15,2013-05-22 03:32:00,
2013-05-21 22:38:00,63.5,61.4,29.82,North,350,4.0,4.0,93,0.00,,,0.62,0,Wunderground v.1.15,2013-05-22 03:38:00,
2013-05-21 22:44:00,63.6,61.5,29.82,North,350,4.0,5.0,93,0.00,,,0.62,0,Wunderground v.1.15,2013-05-22 03:44:00,
2013-05-21 22:50:00,63.6,61.5,29.82,North,350,3.0,3.0,93,0.00,,,0.62,0,Wunderground v.1.15,2013-05-22 03:50:00,
2013-05-21 22:56:00,63.6,61.5,29.82,NNW,348,4.0,5.0,93,0.00,,,0.62,0,Wunderground v.1.15,2013-05-22 03:56:00,
2013-05-21 23:02:00,63.6,61.5,29.82,NNW,348,4.0,5.0,93,0.00,,,0.62,0,Wunderground v.1.15,2013-05-22 04:02:00,
2013-05-21 23:06:00,63.5,61.4,29.82,NNW,348,3.0,5.0,93,0.00,,,0.62,0,Wunderground v.1.15,2013-05-22 04:06:00,
2013-05-21 23:10:00,63.6,61.5,29.82,NNW,348,3.0,3.0,93,0.00,,,0.62,0,Wunderground v.1.15,2013-05-22 04:10:00,
2013-05-21 23:16:00,63.5,61.1,29.82,NNW,346,3.0,3.0,92,0.00,,,0.62,0,Wunderground v.1.15,2013-05-22 04:16:00,
2013-05-21 23:20:00,63.5,61.1,29.82,NNW,346,4.0,5.0,92,0.00,,,0.62,0,Wunderground v.1.15,2013-05-22 04:20:00,
2013-05-21 23:26:00,63.4,61.0,29.82,NNW,345,5.0,5.0,92,0.00,,,0.62,0,Wunderground v.1.15,2013-05-22 04:26:00,
2013-05-21 23:32:00,63.4,61.3,29.82,NNW,345,4.0,4.0,93,0.00,,,0.62,0,Wunderground v.1.15,2013-05-22 04:32:00,
2013-05-21 23:40:00,63.4,61.3,29.82,NNW,344,4.0,5.0,93,0.00,,,0.62,0,Wunderground v.1.15,2013-05-22 04:40:00,
2013-05-21 23:46:00,63.5,61.4,29.82,NNW,344,3.0,5.0,93,0.00,,,0.62,0,Wunderground v.1.15,2013-05-22 04:46:00,
2013-05-21 23:52:00,63.4,61.3,29.82,NNW,338,3.0,8.0,93,0.00,,,0.62,0,Wunderground v.1.15,2013-05-22 04:52:00,